CW6451 Weather Reports


Display with metric or nautical units.
time (UTC)temp
F
wind
direction
speed
MPH
gust
MPH
rain 1hr
in
rain 24hr
in
rain mn
in
humidity
%
barometer
mb
20190220231329 29 214 2.0 3.0 0.00 0.00 0.00 75 1029.5
20190220230828 29 214 1.0 4.0 0.00 0.00 0.00 74 1029.7
20190220230331 28 214 1.0 4.0 0.00 0.00 0.00 73 1029.7
20190220230018 28 214 1.0 5.0 0.00 0.00 0.00 73 1030.1
20190220225836 28 214 2.0 5.0 0.00 0.00 0.00 73 1029.8
20190220225328 28 192 3.0 5.0 0.00 0.00 0.00 73 1029.8
20190220224817 28 216 3.0 6.0 0.00 0.00 0.00 72 1029.9
20190220224657 28 238 2.0 6.0 0.00 0.00 0.00 72 1030.2
20190220224321 28 197 3.0 6.0 0.00 0.00 0.00 72 1029.9
20190220223822 28 254 4.0 5.0 0.00 0.00 0.00 71 1029.9
20190220223325 28 202 3.0 5.0 0.00 0.00 0.00 70 1030.0
20190220223053 28 238 2.0 4.0 0.00 0.00 0.00 70 1030.4
20190220222820 28 233 3.0 4.0 0.00 0.00 0.00 69 1030.1
20190220222322 28 264 2.0 4.0 0.00 0.00 0.00 68 1030.1
20190220221822 28 264 1.0 4.0 0.00 0.00 0.00 67 1030.2
20190220221558 28 264 1.0 4.0 0.00 0.00 0.00 66 1030.6
20190220221321 28 264 2.0 4.0 0.00 0.00 0.00 65 1030.3
20190220220822 28 264 0.0 3.0 0.00 0.00 0.00 65 1030.5
20190220220332 28 264 2.0 7.0 0.00 0.00 0.00 64 1030.5
20190220215818 28 217 2.0 8.0 0.00 0.00 0.00 63 1030.8
20190220215326 28 255 3.0 7.0 0.00 0.00 0.00 63 1030.8
20190220214828 28 218 3.0 8.0 0.00 0.00 0.00 63 1031.0
20190220214555 28 232 4.0 8.0 0.00 0.00 0.00 62 1031.3
20190220214337 28 241 4.0 8.0 0.00 0.00 0.00 62 1031.1
20190220213828 28 205 3.0 8.0 0.00 0.00 0.00 61 1031.1
20190220213331 28 244 4.0 6.0 0.00 0.00 0.00 60 1031.3
20190220213113 27 211 3.0 7.0 0.00 0.00 0.00 59 1031.5
20190220212826 28 228 4.0 7.0 0.00 0.00 0.00 59 1031.3
20190220212322 28 230 4.0 8.0 0.00 0.00 0.00 58 1031.4
20190220211824 28 179 4.0 10.0 0.00 0.00 0.00 58 1031.5
20190220211520 27 214 1.0 10.0 0.00 0.00 0.00 58 1031.8
20190220211329 28 216 6.0 10.0 0.00 0.00 0.00 58 1031.7
20190220210823 28 252 6.0 10.0 0.00 0.00 0.00 57 1031.8
20190220210328 28 221 4.0 9.0 0.00 0.00 0.00 56 1031.7
20190220205830 28 245 5.0 10.0 0.00 0.01 0.00 54 1031.9
20190220205328 28 252 5.0 10.0 0.00 0.01 0.00 52 1032.1
20190220204831 28 214 5.0 9.0 0.00 0.01 0.00 52 1032.1
20190220204516 27 209 3.0 9.0 0.00 0.01 0.00 52 1032.3
20190220204327 28 225 4.0 9.0 0.00 0.01 0.00 51 1032.3
20190220203827 28 185 5.0 10.0 0.00 0.01 0.00 52 1032.3
20190220203332 28 244 5.0 9.0 0.00 0.01 0.00 51 1032.2
20190220202824 28 212 4.0 7.0 0.00 0.01 0.00 50 1032.1
20190220202328 28 202 4.0 6.0 0.00 0.01 0.00 50 1032.1
20190220201832 28 254 3.0 7.0 0.00 0.01 0.00 50 1031.9
20190220201742 27 211 2.0 7.0 0.00 0.01 0.00 49 1032.2
20190220201329 28 227 4.0 7.0 0.00 0.01 0.00 48 1031.9
20190220200838 28 236 4.0 7.0 0.00 0.01 0.00 46 1031.9
20190220200321 28 208 3.0 7.0 0.00 0.01 0.00 46 1031.9
20190220200137 27 208 4.0 7.0 0.00 0.01 0.00 47 1032.2
20190220195828 28 250 3.0 7.0 0.00 0.03 0.00 46 1032.0
20190220195339 28 223 4.0 5.0 0.00 0.03 0.00 46 1031.9
20190220194819 28 265 2.0 3.0 0.00 0.03 0.00 47 1031.9
20190220194653 27 265 1.0 3.0 0.00 0.03 0.00 47 1032.2
20190220194330 28 265 2.0 4.0 0.00 0.03 0.00 48 1031.9
20190220193820 28 265 1.0 4.0 0.00 0.03 0.00 48 1032.0
20190220193336 28 265 1.0 4.0 0.00 0.03 0.00 50 1032.2
20190220193056 27 265 1.0 3.0 0.00 0.03 0.00 50 1032.5
20190220192819 28 265 1.0 3.0 0.00 0.03 0.00 50 1032.1
20190220192323 28 265 2.0 3.0 0.00 0.03 0.00 50 1032.4
20190220191826 28 265 1.0 4.0 0.00 0.03 0.00 50 1032.1
20190220191523 28 265 2.0 4.0 0.00 0.03 0.00 50 1032.4
20190220191337 28 265 2.0 4.0 0.00 0.03 0.00 51 1032.2
20190220190834 28 265 2.0 4.0 0.00 0.03 0.00 51 1032.3
20190220190325 28 265 1.0 4.0 0.00 0.03 0.00 50 1032.5
20190220185831 28 265 2.0 4.0 0.00 0.04 0.00 49 1032.2
20190220185332 28 265 2.0 4.0 0.00 0.04 0.00 49 1032.2
20190220184825 28 5 0.0 2.0 0.00 0.04 0.00 50 1032.3
20190220184629 27 5 0.0 2.0 0.00 0.04 0.00 50 1032.5
20190220184337 28 5 0.0 2.0 0.00 0.04 0.00 50 1032.3
20190220183835 28 5 0.0 4.0 0.00 0.04 0.00 51 1032.3
20190220183326 28 5 3.0 4.0 0.00 0.04 0.00 51 1032.4
20190220183133 27 355 1.0 4.0 0.00 0.04 0.00 52 1032.7
20190220182820 28 24 2.0 4.0 0.00 0.04 0.00 52 1032.4
20190220182331 28 258 1.0 2.0 0.00 0.04 0.00 52 1032.3
20190220181836 28 258 1.0 3.0 0.00 0.04 0.00 50 1032.3
20190220181537 27 258 0.0 3.0 0.00 0.04 0.00 49 1032.6
20190220181322 28 258 2.0 3.0 0.00 0.04 0.00 50 1032.4
20190220180836 28 360 0.0 3.0 0.00 0.04 0.00 50 1032.6
20190220180329 28 360 1.0 3.0 0.00 0.04 0.00 51 1032.7
20190220175827 27 360 2.0 3.0 0.00 0.06 0.00 51 1032.7
20190220175335 27 360 1.0 3.0 0.00 0.06 0.00 50 1032.5
20190220174831 27 360 2.0 4.0 0.00 0.06 0.00 50 1032.7
20190220174614 27 360 2.0 4.0 0.00 0.06 0.00 50 1033.0
20190220174323 27 360 2.0 4.0 0.00 0.06 0.00 50 1032.8
20190220173826 27 310 1.0 3.0 0.00 0.06 0.00 50 1033.0
20190220173330 27 310 1.0 2.0 0.00 0.06 0.00 49 1033.1
20190220173111 27 310 1.0 3.0 0.00 0.06 0.00 49 1033.5
20190220172821 27 310 0.0 3.0 0.00 0.06 0.00 50 1033.3
20190220172326 27 310 0.0 3.0 0.00 0.06 0.00 49 1033.4
20190220171837 27 310 1.0 3.0 0.00 0.06 0.00 49 1033.7
20190220171601 27 310 0.0 3.0 0.00 0.06 0.00 48 1034.0
20190220171321 27 310 1.0 3.0 0.00 0.06 0.00 48 1033.8
20190220170833 27 310 1.0 3.0 0.00 0.06 0.00 49 1033.8
20190220170332 27 310 0.0 4.0 0.00 0.06 0.00 47 1033.9
20190220170204 26 310 1.0 4.0 0.00 0.06 0.00 48 1034.3
20190220165825 27 310 1.0 4.0 0.00 0.06 0.00 47 1034.1
20190220165330 27 311 1.0 5.0 0.00 0.06 0.00 48 1034.2
20190220164822 27 355 3.0 5.0 0.00 0.06 0.00 48 1034.3
20190220164637 27 355 2.0 4.0 0.00 0.06 0.00 48 1034.7
20190220164332 27 355 3.0 4.0 0.00 0.06 0.00 49 1034.6
20190220163835 27 355 3.0 4.0 0.00 0.06 0.00 51 1034.8
20190220163321 27 5 1.0 5.0 0.00 0.06 0.00 53 1035.2
20190220163107 27 5 2.0 5.0 0.00 0.06 0.00 53 1035.5
20190220162827 27 17 1.0 5.0 0.00 0.06 0.00 53 1035.2
20190220162324 27 23 0.0 5.0 0.00 0.06 0.00 54 1035.1
20190220161833 27 322 2.0 5.0 0.00 0.06 0.00 56 1035.1
20190220161555 26 344 1.0 4.0 0.00 0.06 0.00 56 1035.4
20190220161335 27 12 2.0 5.0 0.00 0.06 0.00 55 1035.1
20190220160825 27 11 2.0 5.0 0.00 0.06 0.00 55 1035.1
20190220160337 27 277 1.0 4.0 0.00 0.06 0.00 57 1035.2
20190220160006 26 277 1.0 4.0 0.00 0.06 0.00 56 1035.4
20190220155833 27 347 1.0 4.0 0.00 0.06 0.00 56 1035.1
20190220155326 27 40 2.0 5.0 0.00 0.06 0.00 57 1035.1
20190220154834 26 319 3.0 5.0 0.00 0.06 0.00 59 1035.0
20190220154336 26 326 3.0 6.0 0.00 0.06 0.00 58 1034.9
20190220153829 26 5 3.0 8.0 0.00 0.06 0.00 58 1034.7
20190220153327 26 5 2.0 8.0 0.00 0.06 0.00 59 1035.0
20190220153125 26 17 2.0 7.0 0.00 0.06 0.00 58 1035.3
20190220152825 26 5 4.0 5.0 0.00 0.06 0.00 58 1035.3
20190220152327 26 298 1.0 6.0 0.00 0.06 0.00 58 1035.5
20190220151823 26 298 3.0 6.0 0.00 0.06 0.00 59 1035.3
20190220151656 26 321 0.0 6.0 0.00 0.06 0.00 61 1035.6
20190220151333 26 350 1.0 6.0 0.00 0.06 0.00 61 1035.4
20190220150837 26 360 3.0 6.0 0.00 0.06 0.00 60 1035.7
20190220150323 26 355 2.0 5.0 0.00 0.06 0.00 61 1035.9
20190220150136 25 313 3.0 7.0 0.00 0.06 0.00 61 1036.2
20190220145818 26 5 3.0 7.0 0.00 0.06 0.00 61 1036.0
20190220145328 26 285 4.0 7.0 0.00 0.06 0.00 60 1035.8
20190220144828 26 340 3.0 6.0 0.00 0.06 0.00 60 1035.7
20190220144554 25 11 1.0 5.0 0.00 0.06 0.00 58 1035.9
20190220144332 26 19 3.0 5.0 0.00 0.06 0.00 58 1035.6
20190220143822 26 345 2.0 5.0 0.00 0.06 0.00 58 1035.5
20190220143332 26 332 3.0 8.0 0.00 0.06 0.00 58 1035.3
20190220143036 25 355 3.0 8.0 0.00 0.06 0.00 56 1035.6
20190220142829 26 22 4.0 8.0 0.00 0.06 0.00 57 1035.3
20190220142331 25 342 3.0 5.0 0.00 0.06 0.00 57 1035.3
20190220141834 25 349 1.0 6.0 0.00 0.06 0.00 56 1035.2
20190220141536 25 349 2.0 6.0 0.00 0.06 0.00 57 1035.5
20190220141329 25 18 3.0 6.0 0.00 0.06 0.00 56 1035.3
20190220140827 25 5 4.0 8.0 0.00 0.06 0.00 55 1035.1
20190220140338 25 37 4.0 8.0 0.00 0.06 0.00 58 1035.1
20190220135829 25 5 3.0 10.0 0.00 0.06 0.00 58 1035.0
20190220135331 25 38 6.0 10.0 0.00 0.06 0.00 58 1035.0
20190220134826 25 41 3.0 8.0 0.00 0.06 0.00 62 1034.9
20190220134529 24 360 6.0 9.0 0.00 0.06 0.00 63 1035.2
20190220134329 25 21 4.0 9.0 0.00 0.06 0.00 64 1035.0
20190220133826 25 29 5.0 9.0 0.00 0.06 0.00 64 1035.4
20190220133324 24 10 4.0 8.0 0.00 0.06 0.00 64 1035.7
20190220133113 24 360 3.0 8.0 0.00 0.06 0.00 64 1036.2
20190220132831 24 360 4.0 8.0 0.00 0.06 0.00 64 1036.0
20190220132332 24 300 3.0 6.0 0.00 0.06 0.00 62 1036.4
20190220131826 24 5 2.0 6.0 0.00 0.06 0.00 59 1036.4
20190220131535 23 13 2.0 8.0 0.00 0.06 0.00 59 1036.6
20190220131334 23 13 3.0 8.0 0.00 0.06 0.00 59 1036.2
20190220130833 23 17 4.0 6.0 0.00 0.06 0.00 59 1036.0
20190220130329 23 349 4.0 9.0 0.00 0.06 0.00 58 1035.7
20190220125827 23 5 5.0 9.0 0.00 0.06 0.00 60 1035.6
20190220125328 23 31 5.0 8.0 0.00 0.06 0.00 60 1035.6
20190220124836 23 11 4.0 8.0 0.00 0.06 0.00 60 1035.7
20190220124525 22 13 3.0 8.0 0.00 0.06 0.00 61 1035.9
20190220124336 22 26 5.0 8.0 0.00 0.06 0.00 61 1035.6
20190220123837 22 28 3.0 6.0 0.00 0.06 0.00 62 1035.6
20190220123322 22 341 4.0 6.0 0.00 0.06 0.00 62 1035.6
20190220123132 21 355 3.0 8.0 0.00 0.06 0.00 63 1035.8
20190220122820 22 355 3.0 8.0 0.00 0.06 0.00 64 1035.5
20190220122332 22 313 4.0 8.0 0.00 0.06 0.00 65 1035.1
20190220121818 21 5 3.0 5.0 0.00 0.06 0.00 66 1034.9
20190220121520 21 5 2.0 5.0 0.00 0.06 0.00 66 1035.1
20190220121334 21 5 3.0 5.0 0.00 0.06 0.00 66 1034.8
20190220120825 21 5 3.0 6.0 0.00 0.06 0.00 65 1035.0
20190220120325 21 5 5.0 6.0 0.00 0.06 0.00 65 1034.9
20190220120248 21 5 3.0 5.0 0.00 0.06 0.00 66 1035.2
20190220115824 21 355 2.0 4.0 0.00 0.06 0.00 66 1034.9
20190220115324 21 355 2.0 5.0 0.00 0.06 0.00 66 1034.9
20190220114824 21 355 3.0 5.0 0.00 0.06 0.00 66 1035.0
20190220114544 21 10 2.0 5.0 0.00 0.06 0.00 66 1035.2
20190220114320 21 22 2.0 5.0 0.00 0.06 0.00 66 1034.9
20190220113819 21 22 3.0 8.0 0.00 0.06 0.00 66 1034.9
20190220113330 21 22 3.0 5.0 0.00 0.06 0.00 65 1035.0
20190220113215 21 22 3.0 5.0 0.00 0.06 0.00 65 1035.3
20190220112821 21 13 4.0 6.0 0.00 0.06 0.00 65 1035.0
20190220112322 21 13 3.0 6.0 0.00 0.06 0.00 65 1035.0
20190220111822 21 355 4.0 5.0 0.00 0.06 0.00 65 1035.2
20190220111700 21 355 3.0 5.0 0.00 0.06 0.00 65 1035.5
20190220111322 21 355 3.0 5.0 0.00 0.06 0.00 65 1035.4
20190220110831 21 355 3.0 5.0 0.00 0.06 0.00 65 1035.4
20190220110327 21 355 4.0 5.0 0.00 0.06 0.00 66 1035.5
20190220105829 21 319 2.0 4.0 0.00 0.06 0.00 67 1035.6
20190220105330 21 319 2.0 4.0 0.00 0.06 0.00 66 1035.6
20190220104834 21 319 2.0 5.0 0.00 0.06 0.00 67 1035.6
20190220104638 21 319 2.0 5.0 0.00 0.06 0.00 66 1035.9
20190220104321 21 319 3.0 4.0 0.00 0.06 0.00 66 1035.7
20190220103833 21 319 2.0 6.0 0.00 0.06 0.00 64 1035.7
20190220103338 21 319 4.0 6.0 0.00 0.06 0.00 64 1035.6
20190220103053 21 351 1.0 5.0 0.00 0.06 0.00 63 1035.9
20190220102839 21 351 2.0 5.0 0.00 0.06 0.00 63 1035.7
20190220102320 21 325 2.0 4.0 0.00 0.06 0.00 64 1035.7
20190220101830 21 323 2.0 5.0 0.00 0.06 0.00 64 1035.8
20190220101519 21 323 2.0 5.0 0.00 0.06 0.00 64 1036.0
20190220101327 21 325 2.0 5.0 0.00 0.06 0.00 64 1035.8
20190220100838 21 304 2.0 6.0 0.00 0.06 0.00 63 1035.8
20190220100329 21 325 3.0 6.0 0.00 0.06 0.00 63 1035.8
20190220100159 21 321 3.0 6.0 0.00 0.06 0.00 63 1036.2
20190220095824 21 317 3.0 6.0 0.00 0.06 0.00 63 1035.9
20190220095337 21 313 4.0 8.0 0.00 0.06 0.00 63 1035.9
20190220094825 21 315 3.0 8.0 0.00 0.06 0.00 63 1035.7
20190220094654 21 316 3.0 8.0 0.00 0.06 0.00 63 1036.0
20190220094321 21 321 4.0 8.0 0.00 0.06 0.00 63 1035.8
20190220093822 21 326 4.0 8.0 0.00 0.06 0.00 63 1035.8
20190220093332 21 317 5.0 8.0 0.00 0.06 0.00 64 1035.8
20190220093122 21 287 3.0 8.0 0.00 0.06 0.00 65 1035.9
20190220092833 21 278 3.0 8.0 0.00 0.06 0.00 65 1035.6
20190220092329 21 348 3.0 8.0 0.00 0.06 0.00 63 1035.5
20190220091827 21 5 3.0 8.0 0.00 0.06 0.00 62 1035.4
20190220091532 21 341 4.0 8.0 0.00 0.06 0.00 62 1035.6
20190220091327 21 9 4.0 8.0 0.00 0.06 0.00 62 1035.3
20190220090822 21 360 4.0 9.0 0.00 0.06 0.00 61 1035.0
20190220090334 21 23 6.0 9.0 0.00 0.06 0.00 61 1034.8
20190220090026 21 342 4.0 11.0 0.00 0.06 0.00 61 1035.0
20190220085833 21 32 6.0 11.0 0.00 0.06 0.00 61 1034.8
20190220085324 21 41 6.0 11.0 0.00 0.06 0.00 61 1034.8
20190220084834 21 355 4.0 10.0 0.00 0.06 0.00 61 1034.8
20190220084337 21 17 6.0 10.0 0.00 0.06 0.00 61 1034.8
20190220083821 21 355 7.0 11.0 0.00 0.06 0.00 61 1034.7
20190220083327 21 10 6.0 13.0 0.00 0.06 0.00 60 1034.7
20190220083115 21 18 6.0 13.0 0.00 0.06 0.00 61 1034.9
20190220082828 21 355 7.0 13.0 0.00 0.06 0.00 61 1034.6
20190220082336 21 351 6.0 13.0 0.00 0.06 0.00 61 1034.4
20190220081837 21 9 7.0 15.0 0.00 0.06 0.00 61 1034.5
20190220081545 21 11 5.0 15.0 0.00 0.06 0.00 62 1034.7
20190220081327 22 5 6.0 15.0 0.00 0.06 0.00 61 1034.4
20190220080837 22 17 8.0 14.0 0.00 0.06 0.00 61 1034.5
20190220080339 22 24 9.0 15.0 0.00 0.06 0.00 61 1034.4
20190220075823 22 9 9.0 15.0 0.00 0.06 0.00 62 1034.6
20190220075328 22 319 8.0 13.0 0.00 0.06 0.00 63 1034.7
20190220074830 22 355 7.0 12.0 0.00 0.06 0.00 62 1034.7
20190220074628 21 350 7.0 12.0 0.00 0.06 0.00 62 1035.0
20190220074321 22 21 8.0 13.0 0.00 0.06 0.00 62 1034.7
20190220073829 22 360 8.0 13.0 0.00 0.06 0.00 62 1034.7
20190220073326 22 9 8.0 13.0 0.00 0.06 0.00 62 1034.6
20190220072823 22 355 7.0 12.0 0.00 0.06 0.00 62 1034.6
20190220072320 22 9 8.0 12.0 0.00 0.06 0.00 62 1034.7
20190220071830 22 360 6.0 14.0 0.00 0.06 0.00 62 1034.7
20190220071504 22 15 9.0 14.0 0.00 0.06 0.00 61 1035.1
20190220071331 22 5 8.0 14.0 0.00 0.06 0.00 61 1034.8
20190220070827 22 19 6.0 13.0 0.00 0.06 0.00 61 1034.8
20190220070333 22 342 7.0 13.0 0.00 0.06 0.00 61 1034.8
20190220070149 22 21 8.0 13.0 0.00 0.06 0.00 61 1035.1
20190220065828 22 337 5.0 13.0 0.00 0.06 0.00 61 1034.8
20190220065345 22 360 7.0 13.0 0.00 0.06 0.00 60 1034.8
20190220064828 22 327 8.0 13.0 0.00 0.06 0.00 60 1034.9
20190220064624 22 19 7.0 13.0 0.00 0.06 0.00 60 1035.2
20190220064328 22 336 9.0 13.0 0.00 0.06 0.00 59 1035.0
20190220063822 22 320 6.0 12.0 0.00 0.06 0.00 59 1034.9
20190220063323 22 350 6.0 12.0 0.00 0.06 0.00 59 1034.8
20190220063102 22 355 6.0 12.0 0.00 0.06 0.00 58 1035.1
20190220062824 22 360 8.0 12.0 0.00 0.06 0.00 59 1034.8
20190220062335 23 329 5.0 13.0 0.00 0.06 0.00 59 1034.9
20190220061825 23 9 6.0 14.0 0.00 0.06 0.00 59 1034.8
20190220061600 22 16 4.0 14.0 0.00 0.06 0.00 58 1035.1
20190220061326 23 339 5.0 14.0 0.00 0.06 0.00 58 1034.7
20190220060833 23 11 8.0 13.0 0.00 0.06 0.00 58 1034.5
20190220060331 23 355 6.0 14.0 0.00 0.06 0.00 58 1034.5
20190220055829 23 350 7.0 14.0 0.00 0.06 0.00 58 1034.4
20190220055332 23 40 6.0 14.0 0.00 0.06 0.00 58 1034.4
20190220054833 23 5 8.0 14.0 0.00 0.06 0.00 57 1034.4
20190220054547 22 360 8.0 14.0 0.00 0.06 0.00 58 1034.6
20190220054325 23 327 6.0 14.0 0.00 0.06 0.00 58 1034.3
20190220053833 23 16 7.0 15.0 0.00 0.06 0.00 58 1034.3
20190220053330 23 9 7.0 15.0 0.00 0.06 0.00 57 1034.3
20190220053021 23 23 8.0 15.0 0.00 0.06 0.00 58 1034.5
20190220052834 23 332 6.0 13.0 0.00 0.06 0.00 58 1034.2
20190220052325 23 339 5.0 12.0 0.00 0.06 0.00 57 1034.3
20190220051820 23 9 7.0 13.0 0.00 0.06 0.00 58 1034.2
20190220051615 23 348 6.0 13.0 0.00 0.06 0.00 57 1034.6
20190220051325 23 13 6.0 13.0 0.00 0.06 0.00 58 1034.3
20190220050826 24 355 8.0 12.0 0.00 0.06 0.00 58 1034.3
20190220050323 23 355 6.0 11.0 0.00 0.06 0.00 59 1034.4
20190220045822 24 355 5.0 15.0 0.00 0.06 0.06 58 1034.3
20190220045334 24 30 5.0 11.0 0.00 0.06 0.06 58 1034.3
20190220044817 24 348 5.0 11.0 0.00 0.06 0.06 58 1034.1
20190220044650 23 349 5.0 11.0 0.00 0.06 0.06 57 1034.3
20190220044334 24 337 4.0 10.0 0.00 0.06 0.06 57 1034.0
20190220043824 24 5 3.0 11.0 0.00 0.06 0.06 57 1034.0
20190220043327 24 333 4.0 14.0 0.00 0.06 0.06 55 1034.0
20190220043055 24 319 5.0 14.0 0.00 0.06 0.06 55 1034.3
20190220042835 24 333 7.0 14.0 0.00 0.06 0.06 55 1034.2
20190220042325 24 346 8.0 13.0 0.00 0.06 0.06 55 1034.1
20190220041826 24 342 8.0 15.0 0.00 0.06 0.06 54 1034.1
20190220041526 24 326 6.0 15.0 0.00 0.06 0.06 54 1034.3
20190220041330 24 11 5.0 14.0 0.00 0.06 0.06 54 1034.0
20190220040833 24 337 7.0 13.0 0.00 0.06 0.06 53 1034.2
20190220040323 25 340 8.0 12.0 0.00 0.06 0.06 53 1034.3
20190220035820 25 17 7.0 14.0 0.00 0.06 0.06 53 1034.4
20190220035339 25 318 8.0 14.0 0.00 0.06 0.06 52 1034.5
20190220034826 25 316 8.0 14.0 0.00 0.06 0.06 52 1034.4
20190220034606 25 296 7.0 13.0 0.00 0.06 0.06 52 1034.6
20190220034332 25 285 7.0 13.0 0.00 0.06 0.06 51 1034.4
20190220033833 25 355 7.0 14.0 0.00 0.06 0.06 52 1034.4
20190220033327 25 355 5.0 14.0 0.00 0.06 0.06 51 1034.4
20190220033059 25 328 7.0 14.0 0.00 0.06 0.06 52 1034.6
20190220032824 25 339 8.0 14.0 0.00 0.06 0.06 51 1034.4
20190220032325 26 355 6.0 16.0 0.00 0.06 0.06 51 1034.5
20190220031827 26 11 8.0 16.0 0.00 0.06 0.06 50 1034.5
20190220031539 25 318 6.0 13.0 0.00 0.06 0.06 50 1034.7
20190220031335 26 304 8.0 13.0 0.00 0.06 0.06 50 1034.4
20190220030832 26 304 6.0 13.0 0.00 0.06 0.06 50 1034.5
20190220030331 26 348 8.0 13.0 0.00 0.06 0.06 51 1034.4
20190220030259 26 336 6.0 13.0 0.00 0.06 0.06 50 1034.7
20190220025826 26 316 8.0 13.0 0.00 0.06 0.06 49 1034.3
20190220025333 26 5 7.0 13.0 0.00 0.06 0.06 50 1034.4
20190220024825 26 16 5.0 13.0 0.00 0.06 0.06 50 1034.4
20190220024539 26 348 8.0 14.0 0.00 0.06 0.06 50 1034.6
20190220024337 26 330 7.0 15.0 0.00 0.06 0.06 50 1034.3
20190220023828 27 350 6.0 15.0 0.00 0.06 0.06 49 1034.4
20190220023321 27 327 10.0 15.0 0.00 0.06 0.06 49 1034.4
20190220023029 26 286 6.0 14.0 0.00 0.06 0.06 50 1034.5
20190220022821 27 315 7.0 14.0 0.00 0.06 0.06 50 1034.3
20190220022331 27 5 7.0 14.0 0.00 0.06 0.06 49 1034.2
20190220021834 27 331 7.0 14.0 0.00 0.06 0.06 49 1034.2
20190220021709 27 355 5.0 14.0 0.00 0.06 0.06 49 1034.5
20190220021320 27 343 8.0 14.0 0.00 0.06 0.06 49 1034.1
20190220020824 27 325 5.0 10.0 0.00 0.06 0.06 50 1034.0
20190220020326 27 327 5.0 14.0 0.00 0.06 0.06 48 1034.1
20190220020027 27 302 8.0 14.0 0.00 0.06 0.06 47 1034.3
20190220015826 27 327 7.0 14.0 0.00 0.06 0.06 46 1034.1
20190220015340 27 323 9.0 15.0 0.00 0.06 0.06 48 1034.0
20190220014829 27 324 8.0 15.0 0.00 0.06 0.06 48 1034.0
20190220014607 27 316 7.0 17.0 0.00 0.06 0.06 48 1034.2
20190220014327 28 336 9.0 17.0 0.00 0.06 0.06 48 1034.0
20190220013836 28 322 9.0 17.0 0.00 0.06 0.06 47 1033.8
20190220013325 28 306 7.0 14.0 0.00 0.06 0.06 48 1033.7
20190220013101 27 316 8.0 14.0 0.00 0.06 0.06 48 1033.9
20190220012825 28 319 7.0 14.0 0.00 0.06 0.06 48 1033.7
20190220012329 28 355 5.0 13.0 0.00 0.06 0.06 48 1033.5
20190220011829 28 342 8.0 13.0 0.00 0.06 0.06 48 1033.2
20190220011727 27 317 5.0 15.0 0.00 0.06 0.06 49 1033.5
20190220011321 28 331 6.0 15.0 0.00 0.06 0.06 49 1033.3
20190220010824 28 347 8.0 16.0 0.00 0.06 0.06 48 1033.1
20190220010326 28 338 7.0 17.0 0.00 0.06 0.06 46 1033.0
20190220010250 28 325 7.0 19.0 0.00 0.06 0.06 46 1033.3
20190220005830 28 329 10.0 19.0 0.00 0.06 0.06 45 1033.0
20190220005333 28 322 11.0 19.0 0.00 0.06 0.06 46 1032.9
20190220004834 28 5 8.0 19.0 0.00 0.06 0.06 48 1032.9
20190220004557 28 336 8.0 19.0 0.00 0.06 0.06 47 1033.1
20190220004328 28 13 7.0 19.0 0.00 0.06 0.06 48 1032.8
20190220003825 28 323 11.0 16.0 0.00 0.06 0.06 48 1032.9
20190220003328 28 323 9.0 15.0 0.00 0.06 0.06 47 1032.8
20190220003131 28 308 8.0 18.0 0.00 0.06 0.06 47 1032.9
20190220002830 29 294 9.0 18.0 0.00 0.06 0.06 47 1032.6
20190220002323 29 338 10.0 18.0 0.00 0.06 0.06 46 1032.5
20190220001833 29 319 8.0 15.0 0.00 0.06 0.06 46 1032.3
20190220001601 28 299 9.0 15.0 0.00 0.06 0.06 47 1032.7
20190220001334 29 305 9.0 15.0 0.00 0.06 0.06 47 1032.5
20190220000821 29 327 9.0 15.0 0.00 0.06 0.06 47 1032.3
20190220000335 29 298 7.0 17.0 0.00 0.06 0.06 46 1032.3
20190220000135 28 310 7.0 17.0 0.00 0.06 0.06 46 1032.3
20190219235825 29 321 8.0 17.0 0.00 0.06 0.06 46 1032.0
20190219235328 29 298 10.0 17.0 0.00 0.06 0.06 46 1032.1
20190219234830 29 321 8.0 16.0 0.00 0.06 0.06 46 1032.0
20190219234642 29 323 8.0 16.0 0.00 0.06 0.06 46 1032.2
20190219234320 29 303 7.0 16.0 0.00 0.06 0.06 46 1032.0
20190219233830 29 336 7.0 16.0 0.00 0.06 0.06 47 1032.1
20190219233329 29 274 7.0 14.0 0.00 0.06 0.06 48 1032.0
20190219233128 29 302 8.0 14.0 0.00 0.06 0.06 48 1032.3
20190219232833 29 284 6.0 13.0 0.00 0.06 0.06 48 1031.9
20190219232333 30 332 6.0 14.0 0.00 0.06 0.06 47 1031.8
20190219231817 30 294 8.0 14.0 0.00 0.06 0.06 46 1031.5
20190219231631 29 269 7.0 14.0 0.00 0.06 0.06 46 1031.6